St. Marys, AK

6:33 PM AKST on November 14, 2019 (GMT -0900)
Saint Mary's

Weather History for PASM - September, 2019

Change the Weather History Date:

Sunday, September 8, 2019

  Actual Average Record
Temperature  
Mean Temperature 50 °F -  
Max Temperature 51 °F 49 °F 64 °F (1997)
Min Temperature 48 °F 38 °F 30 °F (1999)
Degree Days  
Heating Degree Days 14    
Moisture  
Dew Point 48 °F    
Average Humidity 93    
Maximum Humidity 100    
Minimum Humidity 86    
Precipitation  
Precipitation 0.03 in - - ()
Sea Level Pressure  
Sea Level Pressure 29.80 in    
Wind  
Wind Speed 15 mph ()    
Max Wind Speed 28 mph    
Max Gust Speed 36 mph    
Visibility 9.1 miles    
Events Rain    
Averages and records for this station are not official NWS values.
T = Trace of Precipitation, MM = Missing Value Source: Averaged Metar Reports

Daily Weather History Graph

Daily Weather History Graph

Search for Another Location

Airport or City:

Astronomy

Sep. 08, 2019 Rise Set
Actual Time 8:00 AM AKDT 9:39 PM AKDT
Civil Twilight 7:14 AM AKDT 10:25 PM AKDT
Nautical Twilight 6:13 AM AKDT 11:25 PM AKDT
Astronomical Twilight 4:58 AM AKDT 12:39 AM AKDT
Moon 8:38 PM AKDT (9/8) 1:07 AM AKDT (9/8)
Length of Visible Light 15h 11m
Length of Day
13h 38m
Waxing Gibbous, 76% of the Moon is Illuminated
Sep 8
Waxing Gibbous
Sep 13
Full
Sep 21
Last Quarter
Sep 28
New
Oct 5
First Quarter

Hourly Weather History & Observations

Time (AKDT) Temp. Dew Point Humidity Pressure Visibility Wind Dir Wind Speed Gust Speed Precip Events Conditions
12:02 AM 51.1 °F 48.9 °F 92% 29.64 in 5.0 mi South 21.9 mph 34.5 mph 0.01 in   Overcast
1:02 AM 51.1 °F 48.9 °F 92% 29.68 in 10.0 mi South 23.0 mph 34.5 mph 0.00 in   Overcast
1:19 AM 51.8 °F 48.2 °F 88% 29.67 in 10.0 mi South 27.6 mph 35.7 mph N/A   Overcast
2:02 AM 50.0 °F 48.0 °F 93% 29.72 in 8.0 mi South 20.7 mph 35.7 mph N/A   Overcast
2:42 AM 50.0 °F 46.4 °F 87% 29.72 in 10.0 mi South 20.7 mph 26.5 mph N/A   Overcast
3:02 AM 50.0 °F 48.0 °F 93% 29.75 in 10.0 mi South 17.3 mph 24.2 mph N/A   Overcast
3:23 AM 50.0 °F 46.4 °F 87% 29.73 in 10.0 mi South 20.7 mph 27.6 mph N/A   Overcast
4:02 AM 48.2 °F 46.4 °F 93% 29.75 in 10.0 mi South 15.0 mph 23.0 mph N/A   Mostly Cloudy
4:08 AM 48.9 °F 46.0 °F 90% 29.78 in 10.0 mi South 16.1 mph 23.0 mph N/A   Mostly Cloudy
4:29 AM 48.2 °F 46.4 °F 93% 29.76 in 10.0 mi South 17.3 mph 23.0 mph N/A   Overcast
5:02 AM 48.2 °F 46.4 °F 93% 29.77 in 10.0 mi South 16.1 mph 21.9 mph N/A   Overcast
5:33 AM 48.9 °F 46.9 °F 93% 29.81 in 10.0 mi South 17.3 mph 23.0 mph N/A   Mostly Cloudy
5:43 AM 48.2 °F 46.4 °F 93% 29.79 in 10.0 mi South 13.8 mph 19.6 mph N/A   Scattered Clouds
6:02 AM 48.2 °F 46.4 °F 93% 29.79 in 10.0 mi South 15.0 mph 23.0 mph N/A   Mostly Cloudy
6:29 AM 48.2 °F 46.4 °F 93% 29.80 in 10.0 mi South 17.3 mph 23.0 mph N/A   Overcast
6:59 AM 48.2 °F 46.4 °F 93% 29.80 in 10.0 mi South 13.8 mph 19.6 mph N/A   Overcast
7:02 AM 48.9 °F 46.9 °F 93% 29.83 in 10.0 mi South 11.5 mph 19.6 mph N/A   Overcast
8:02 AM 48.2 °F 46.4 °F 93% 29.82 in 10.0 mi South 12.7 mph 18.4 mph N/A   Mostly Cloudy
8:24 AM 48.2 °F 46.4 °F 93% 29.82 in 10.0 mi South 13.8 mph 20.7 mph N/A   Overcast
8:33 AM 48.2 °F 46.4 °F 93% 29.82 in 10.0 mi South 12.7 mph 20.7 mph N/A   Overcast
8:44 AM 48.2 °F 46.4 °F 93% 29.82 in 10.0 mi SSE 12.7 mph 20.7 mph N/A   Overcast
9:02 AM 48.0 °F 46.0 °F 93% 29.86 in 10.0 mi South 12.7 mph 19.6 mph N/A   Overcast
9:44 AM 48.2 °F 46.4 °F 93% 29.83 in 10.0 mi SSE 10.4 mph - N/A   Overcast
9:57 AM 48.2 °F 46.4 °F 93% 29.84 in 10.0 mi SSE 12.7 mph 17.3 mph N/A   Overcast
10:02 AM 48.9 °F 46.9 °F 93% 29.86 in 10.0 mi SSE 13.8 mph 23.0 mph N/A   Overcast
11:02 AM 50.0 °F 48.0 °F 93% 29.86 in 10.0 mi SSE 13.8 mph 20.7 mph N/A   Overcast
11:12 AM 50.0 °F 48.2 °F 94% 29.84 in 10.0 mi SSE 11.5 mph 21.9 mph N/A   Overcast
12:02 PM 51.1 °F 46.9 °F 86% 29.86 in 10.0 mi SSE 17.3 mph 25.3 mph N/A   Overcast
1:02 PM 51.1 °F 48.0 °F 89% 29.86 in 10.0 mi SSE 13.8 mph 24.2 mph 0.00 in Rain Light Rain
1:42 PM 50.0 °F 48.2 °F 94% 29.83 in 6.0 mi SE 17.3 mph 23.0 mph 0.02 in Rain Light Rain
2:02 PM 50.0 °F 48.2 °F 94% 29.82 in 9.0 mi SE 17.3 mph 23.0 mph 0.03 in Rain Light Rain
3:29 PM 51.8 °F 50.0 °F 94% 29.82 in 10.0 mi SE 15.0 mph 21.9 mph N/A   Overcast
4:02 PM 51.1 °F 50.0 °F 96% 29.84 in 10.0 mi SE 15.0 mph 21.9 mph N/A   Overcast
5:02 PM 53.1 °F 50.0 °F 89% 29.84 in 10.0 mi SE 16.1 mph 20.7 mph N/A   Overcast
5:46 PM 53.6 °F 51.8 °F 94% 29.81 in 10.0 mi SE 15.0 mph - N/A   Overcast
6:02 PM 53.1 °F 51.1 °F 93% 29.83 in 7.0 mi SE 11.5 mph 18.4 mph N/A   Overcast
6:21 PM 53.6 °F 51.8 °F 94% 29.81 in 7.0 mi SE 11.5 mph 19.6 mph 0.00 in Rain Light Rain
7:02 PM 51.8 °F 51.8 °F 100% 29.81 in 5.0 mi SSE 10.4 mph 21.9 mph 0.01 in Rain Light Rain
8:02 PM 52.0 °F 51.1 °F 97% 29.83 in 5.0 mi SE 8.1 mph 20.7 mph 0.02 in Rain Light Rain
9:02 PM 52.0 °F 51.1 °F 97% 29.83 in 7.0 mi SSE 10.4 mph 19.6 mph 0.01 in Rain Light Rain
10:02 PM 52.0 °F 51.1 °F 97% 29.83 in 4.0 mi SE 6.9 mph - 0.00 in Rain Light Rain
11:02 PM 51.8 °F 50.0 °F 94% 29.81 in 10.0 mi ESE 12.7 mph - 0.00 in   Overcast
11:26 PM 51.8 °F 50.0 °F 94% 29.81 in 10.0 mi SE 9.2 mph - 0.00 in   Overcast